GEFSCGP_500_meanwind_198.txt.gz
Wind_Speed
13 11 10 9 8 7 6 5 5 6 6 3 4 7 8 10 11 12 12 12 13 13 13 14 14 14 15 15 13 12 11 9 8 7 7 6 6 6 6 5 5 5 4 3
15 12 12 12 11 9 8 6 6 6 7 4 5 6 8 11 12 11 12 11 12 13 14 14 14 15 15 15 14 12 12 10 9 8 7 6 6 7 6 6 4 4 4 4
16 14 14 14 13 12 10 8 8 8 7 4 7 9 9 10 12 12 11 11 12 12 13 13 14 14 15 15 15 13 12 11 9 8 7 7 7 7 7 6 5 4 4 4
19 17 16 15 14 13 11 10 10 9 7 4 7 10 11 11 11 12 11 11 12 12 12 13 13 13 14 15 15 14 12 12 12 10 9 8 7 7 7 6 5 5 5 5
21 20 18 17 15 15 13 12 11 9 8 6 7 9 13 10 10 11 11 10 11 12 12 12 13 13 14 14 15 15 14 13 12 11 10 9 8 8 7 7 6 5 6 6
22 21 20 19 17 17 15 12 11 11 10 9 7 8 12 10 9 9 10 9 10 10 11 12 12 13 14 14 14 15 14 14 13 11 11 11 10 9 8 7 6 6 6 6
25 22 21 21 19 18 16 13 11 10 9 9 7 8 12 14 12 12 11 10 10 10 11 11 12 12 13 14 14 14 14 13 12 12 11 11 11 10 9 8 7 7 7 7
23 22 22 23 21 20 18 16 14 11 9 9 8 10 13 16 15 13 12 10 10 10 11 11 12 12 13 14 14 14 14 13 13 12 11 11 11 11 10 9 8 8 8 8
21 21 22 23 22 21 19 19 15 14 12 13 12 10 13 17 17 15 14 12 11 10 10 11 12 13 13 14 14 14 14 13 13 13 13 12 12 11 11 10 9 9 9 9
23 22 22 23 24 24 21 19 18 18 16 14 13 12 14 16 17 15 14 13 12 11 10 11 11 13 13 13 14 14 14 14 14 14 14 13 13 12 12 11 10 10 10 10
27 24 23 24 25 25 23 21 21 20 18 15 15 14 14 17 16 16 15 12 12 12 12 11 12 13 13 13 13 14 14 15 15 15 14 14 13 13 13 12 11 11 11 11
30 26 25 25 25 24 23 23 21 22 22 19 17 16 15 15 15 17 15 13 13 12 13 13 13 13 12 13 13 14 15 15 15 15 15 15 14 14 13 12 12 12 12 12
33 31 28 25 24 25 25 24 23 22 20 19 17 18 18 17 17 19 18 15 13 14 13 13 13 13 12 13 14 14 15 15 15 15 15 15 15 14 14 13 13 13 12 12
35 35 32 26 22 22 24 24 24 24 23 21 19 19 20 20 20 20 19 16 15 14 14 13 13 13 13 14 14 14 14 15 16 16 16 16 16 16 15 15 14 14 13 13
36 37 35 31 26 23 22 23 24 25 25 23 20 20 21 22 22 21 19 17 16 15 14 14 14 14 14 15 15 15 15 16 16 16 17 17 18 17 16 16 15 15 15 15
37 37 36 35 31 27 25 24 23 24 25 25 23 21 22 24 24 23 21 19 19 18 15 15 15 15 15 15 16 16 16 17 17 17 18 19 19 19 17 17 17 16 15 15
36 37 37 35 33 31 30 26 24 24 24 24 24 24 24 25 26 25 23 21 21 20 16 16 16 16 16 16 17 17 18 18 18 18 19 20 20 19 18 18 18 18 16 16
37 37 37 34 33 34 31 27 25 24 24 24 25 27 27 26 27 27 25 23 21 20 18 18 18 17 17 18 18 18 19 19 19 19 20 20 20 19 19 19 19 18 17 17
36 36 35 34 33 32 29 29 27 27 27 28 28 30 29 29 28 28 25 24 22 21 21 20 19 19 18 19 19 19 19 20 20 21 21 22 21 20 19 19 20 19 18 18
35 36 36 35 33 31 29 27 27 29 31 31 31 31 30 29 29 27 25 23 22 22 21 21 21 20 20 20 20 20 20 21 21 22 22 22 21 20 20 20 20 20 20 20
34 36 37 35 33 31 30 29 29 31 33 32 32 33 32 31 30 27 25 24 23 22 22 22 23 22 21 21 21 22 22 22 23 23 23 22 21 21 20 20 20 21 21 21
34 35 36 35 33 33 32 32 33 34 33 32 31 32 32 32 31 29 27 25 24 23 23 23 23 23 23 23 23 23 24 24 24 24 23 22 22 21 21 21 21 21 22 22
35 35 34 36 37 36 35 35 35 34 33 33 32 31 30 30 30 29 28 27 26 25 25 25 25 25 24 24 25 25 24 24 24 23 23 22 22 22 22 22 22 22 22 22
38 37 36 37 39 38 37 36 35 35 34 34 33 31 29 29 29 28 28 28 27 26 26 26 26 26 26 26 25 25 25 24 24 24 24 23 23 24 24 23 23 22 22 23
37 37 39 40 40 39 38 37 36 35 34 34 34 32 31 30 29 28 28 29 28 28 27 27 27 27 26 26 26 26 26 25 25 25 25 25 25 25 25 25 24 24 24 24
37 37 40 41 40 40 39 37 36 36 35 35 35 34 32 31 30 29 29 29 29 28 28 28 28 28 28 27 27 27 27 27 26 26 26 26 27 27 26 26 26 26 26 26

GEFSCGP_500_meanwind_204.txt.gz
Wind_Speed
19 17 15 12 9 7 5 3 2 2 5 7 7 8 9 11 13 14 14 14 14 14 13 14 14 15 15 14 13 12 11 10 10 8 7 7 6 6 5 4 3 2 2 1
21 18 15 13 11 9 7 5 4 3 6 7 8 8 7 9 11 12 13 13 13 13 13 13 13 14 14 14 14 13 12 11 10 9 7 6 6 5 5 4 3 2 1 0
22 18 17 16 14 13 10 8 5 5 6 7 7 7 7 7 9 10 11 11 12 12 13 13 13 13 14 14 13 12 12 11 11 10 8 7 6 5 4 4 3 2 1 1
23 21 20 19 17 15 13 11 8 7 8 8 8 7 5 6 7 8 10 10 10 11 12 13 13 13 13 13 13 12 12 12 11 10 9 8 6 5 5 4 3 2 2 2
25 23 22 21 18 16 14 12 11 9 8 8 7 7 5 5 6 7 9 9 9 10 11 11 12 12 12 12 12 12 12 12 11 10 10 9 7 6 5 5 4 3 3 3
25 24 23 21 20 18 17 15 14 12 11 10 8 8 6 6 6 7 8 8 9 10 10 10 11 12 12 12 12 12 12 12 11 10 9 10 8 6 5 4 4 4 4 4
28 26 25 23 21 20 19 17 16 15 14 10 9 10 8 7 6 6 7 8 8 9 9 9 10 11 11 11 11 12 12 12 12 11 10 9 9 7 6 5 5 5 5 5
30 28 26 24 23 21 19 18 17 16 15 11 9 11 9 8 8 7 6 7 8 8 9 8 9 10 10 10 11 11 12 12 12 11 10 10 9 8 7 5 5 5 5 5
29 28 26 25 24 23 21 19 18 17 16 13 11 11 9 7 6 7 7 8 8 8 9 9 8 9 9 9 10 11 11 12 11 12 11 10 10 9 8 7 6 6 6 6
29 29 28 27 26 25 23 20 21 20 18 16 14 11 10 8 8 7 8 9 9 8 8 8 8 8 7 8 9 10 11 11 12 12 11 11 12 11 9 8 7 7 7 7
31 30 29 29 28 26 25 23 23 21 20 18 16 14 11 11 9 8 9 9 11 9 9 9 9 9 8 8 9 10 10 11 12 12 12 12 12 12 11 10 9 8 7 7
31 31 31 30 28 26 26 24 23 23 23 21 19 16 14 13 11 11 10 10 11 10 10 10 10 10 9 9 9 10 11 11 11 12 12 12 13 13 12 11 10 9 9 9
33 33 32 31 30 29 28 27 25 25 25 24 23 19 16 15 14 13 12 12 11 12 12 11 11 11 10 10 10 11 12 12 11 11 12 13 13 13 14 13 12 11 10 9
35 35 34 33 31 31 31 29 27 26 26 26 25 21 18 17 16 15 14 14 14 14 14 13 12 12 11 11 12 11 12 13 12 12 13 13 13 14 14 14 13 12 11 11
36 36 35 34 32 31 31 31 30 29 27 27 25 22 21 19 17 17 16 16 16 15 15 14 13 13 13 12 12 12 13 13 12 12 14 14 14 14 14 14 13 12 11 11
38 37 36 35 34 33 32 31 31 31 29 29 27 24 22 21 21 19 18 18 17 16 16 15 14 13 14 12 13 13 13 13 13 14 14 15 15 15 15 15 14 13 12 11
39 39 38 36 35 34 34 30 30 31 31 30 30 28 25 23 22 21 20 19 18 18 17 17 16 15 14 14 14 14 14 14 14 15 15 16 15 16 15 16 16 14 13 12
39 38 39 38 37 37 33 32 32 32 31 31 30 29 28 27 25 24 23 22 22 20 20 19 18 18 16 15 15 15 15 15 15 15 16 16 17 17 16 16 15 14 13 13
39 40 40 39 40 38 35 33 34 34 33 32 31 29 29 29 28 27 26 25 25 24 23 22 21 20 18 16 16 16 16 15 15 16 17 17 17 17 17 16 15 14 13 14
38 39 40 41 41 41 37 35 34 36 36 34 33 32 31 30 29 28 28 28 28 27 26 24 23 22 21 18 18 18 18 17 17 17 17 17 18 18 17 16 15 15 15 15
38 38 39 41 42 42 38 36 35 36 36 34 33 33 33 32 31 30 29 29 29 27 26 25 25 24 23 21 21 19 19 19 19 19 18 17 18 17 17 17 16 16 16 16
37 38 39 40 42 42 38 36 36 35 34 33 33 33 34 34 33 32 31 30 29 28 26 25 25 25 24 23 20 19 20 20 20 20 19 18 18 18 18 17 17 17 16 17
38 38 38 39 39 39 38 37 35 35 35 34 34 34 33 34 35 35 34 31 30 30 28 27 26 26 25 23 21 21 21 21 21 21 20 19 19 19 18 18 18 18 18 18
36 37 37 38 38 37 37 37 36 35 36 35 34 33 34 34 34 35 35 33 32 31 30 30 29 28 25 23 23 22 22 22 21 21 21 20 20 19 19 19 19 20 20 19
37 37 37 38 37 37 36 36 36 36 35 35 34 34 35 35 34 35 35 34 33 32 31 30 29 27 26 25 24 24 23 23 22 22 22 21 21 21 21 21 21 22 21 21
37 37 37 37 37 37 36 36 36 36 36 35 36 36 35 35 34 34 33 32 32 33 32 30 29 28 27 26 25 24 24 24 24 24 23 23 22 23 23 23 22 22 23 23

GEFSCGP_500_meanwind_210.txt.gz
Wind_Speed
19 17 15 13 10 8 6 3 1 2 4 5 6 7 7 8 9 10 11 12 13 14 14 14 14 13 13 12 11 11 10 10 9 8 7 6 5 4 3 3 2 2 1 1
22 20 18 16 13 11 8 6 4 2 1 2 4 4 5 7 8 8 9 10 11 12 13 14 14 13 13 13 12 11 11 11 10 8 7 6 5 4 4 3 3 2 2 2
24 22 21 19 16 13 10 8 6 4 2 2 2 2 3 5 6 6 7 9 10 11 12 13 13 13 13 13 13 12 12 12 11 10 8 7 6 5 4 4 3 3 3 3
26 25 24 21 19 16 12 10 9 7 5 4 2 2 2 2 4 5 5 7 9 10 11 11 11 12 12 13 13 13 12 12 11 11 9 8 7 5 5 5 4 4 4 4
28 27 26 24 21 19 16 14 12 10 9 7 5 3 1 2 3 4 5 6 7 9 10 10 10 11 11 12 12 13 12 12 12 11 10 10 9 7 6 6 5 5 5 5
30 29 28 26 23 21 20 18 16 14 13 11 8 6 3 3 3 5 5 5 6 8 8 8 9 10 10 11 12 12 13 12 12 11 11 11 10 9 8 7 7 6 6 7
31 30 29 28 26 25 23 21 20 18 17 14 11 9 6 5 4 5 5 5 6 6 8 8 8 9 10 11 11 12 12 12 12 11 11 11 11 10 9 8 7 7 7 7
31 31 29 28 27 27 26 24 22 21 18 16 15 12 7 7 6 5 5 5 5 6 7 8 8 9 9 10 11 12 11 12 12 11 11 12 12 11 10 9 8 8 8 8
32 31 30 29 28 28 27 27 24 23 21 19 17 14 10 9 8 7 7 6 5 5 6 6 8 9 10 10 10 11 11 11 11 12 12 12 12 12 11 10 9 9 9 9
33 32 31 30 30 30 30 28 26 25 23 22 20 17 13 10 10 9 8 7 6 4 5 6 8 9 10 10 10 10 11 11 12 12 13 13 13 13 12 12 11 10 10 9
34 34 32 32 32 31 30 30 29 27 25 23 21 18 14 12 11 10 9 9 8 6 6 7 8 9 10 10 10 10 11 11 12 12 13 13 13 13 14 13 12 12 11 10
34 35 34 33 32 31 31 31 30 29 27 26 23 20 16 15 14 12 10 10 9 8 8 9 9 9 9 9 10 11 12 12 12 12 13 13 13 14 15 14 14 13 12 12
34 35 35 34 34 33 32 32 31 31 29 27 26 22 18 17 15 13 13 12 12 11 10 10 10 9 9 10 11 12 13 14 13 13 14 14 14 14 15 15 13 13 13 13
34 35 35 35 33 32 33 32 32 32 31 29 27 24 21 19 18 17 16 15 14 13 11 10 10 11 11 11 12 13 14 14 14 14 15 15 15 15 16 15 14 14 13 14
34 34 34 34 34 34 34 33 32 32 32 31 28 26 24 22 20 19 18 17 15 14 13 12 12 12 12 12 13 13 14 14 14 15 15 15 16 16 16 15 15 15 15 15
34 34 33 33 34 35 36 35 34 34 33 32 31 29 27 24 23 22 20 18 16 15 15 14 13 13 13 13 14 14 15 15 15 15 16 16 16 17 16 16 17 16 16 16
35 35 34 33 33 34 37 36 36 36 35 33 32 30 28 27 25 23 22 21 19 17 16 16 15 15 14 15 16 16 16 16 16 17 17 17 17 17 17 16 16 16 17 15
36 36 35 34 34 35 35 36 37 36 36 35 34 32 31 28 26 25 23 22 21 19 18 17 18 18 16 17 17 18 18 17 17 18 19 19 18 18 18 17 17 16 16 15
37 37 36 36 36 36 35 35 36 36 36 35 34 33 32 30 28 26 24 23 22 22 21 20 20 20 19 19 20 20 20 19 19 19 21 20 19 19 19 17 16 16 16 16
37 38 38 37 37 37 35 35 36 36 36 35 35 34 33 31 30 28 26 25 23 23 23 22 22 22 22 22 22 22 22 22 21 21 21 21 21 20 19 17 17 17 16 16
38 38 38 38 38 38 37 36 35 36 36 35 35 35 33 32 32 30 29 28 27 26 26 26 25 25 25 25 24 24 23 24 24 24 23 22 22 22 20 18 17 17 17 17
37 38 38 38 39 39 37 37 36 36 36 36 35 35 34 34 33 32 31 30 30 29 28 28 28 28 27 27 26 25 25 25 25 24 24 24 24 24 21 19 18 18 18 18
37 38 38 39 39 38 37 37 36 36 36 36 36 35 34 34 33 33 33 33 32 32 31 30 31 30 29 28 27 26 26 26 26 26 25 26 26 25 23 21 20 20 20 20
37 37 38 38 38 38 38 37 37 37 37 36 36 35 34 33 33 34 34 34 34 33 33 33 33 32 31 30 28 27 27 27 27 28 28 26 24 23 23 22 21 21 21 21
37 37 38 38 38 38 37 37 36 36 37 37 37 36 36 34 33 34 34 34 34 34 34 33 34 32 32 32 30 29 28 28 29 28 27 25 24 23 22 22 21 22 22 22
35 36 37 37 37 37 37 36 37 37 37 37 37 36 36 35 34 34 34 34 35 34 33 33 33 34 33 32 31 30 29 29 29 28 26 24 23 22 22 21 21 22 23 23

GEFSCGP_500_meanwind_216.txt.gz
Wind_Speed
16 14 12 10 9 8 7 5 3 1 1 2 4 5 6 7 8 10 11 11 12 12 12 11 11 11 11 10 10 10 10 9 9 7 7 6 5 5 3 3 2 2 1 1
18 18 16 13 11 10 8 6 4 3 1 1 2 3 3 5 6 7 9 10 11 11 11 11 10 11 11 11 11 10 10 10 9 8 7 6 5 5 4 3 3 2 2 2
21 19 18 15 13 12 10 8 7 4 3 2 0 2 2 3 4 5 7 9 9 9 10 10 10 10 11 11 11 11 11 10 10 8 7 7 6 5 5 4 3 3 2 3
24 22 20 18 16 14 12 10 9 7 4 3 2 2 3 3 3 4 6 7 8 8 9 9 9 9 10 11 11 11 11 11 10 9 8 8 8 7 6 5 4 4 4 4
27 25 23 21 19 17 15 13 11 10 8 5 4 2 4 4 4 4 5 6 6 7 7 8 8 8 9 10 10 11 11 11 11 10 9 8 8 7 7 6 5 4 4 4
28 27 26 24 21 20 17 15 14 13 10 10 8 5 4 5 4 5 5 5 5 5 6 7 7 8 8 9 9 10 10 10 10 10 9 9 9 8 8 7 6 5 5 5
30 29 28 26 24 23 20 17 15 13 13 12 11 8 7 6 5 5 5 5 4 5 5 5 7 7 7 8 8 9 10 10 10 10 10 10 10 9 9 8 7 7 6 6
30 30 30 28 27 25 23 20 17 15 14 13 13 11 9 8 8 7 6 5 4 4 4 5 6 6 7 7 8 9 10 10 10 10 10 10 10 10 9 9 8 8 7 7
30 30 30 30 29 28 26 23 20 18 16 14 13 12 10 10 10 9 8 7 5 5 5 6 6 6 6 7 7 9 9 10 10 10 10 10 11 11 10 10 10 9 9 8
32 31 31 31 30 30 28 26 23 20 18 16 15 13 11 12 11 10 9 9 8 7 7 7 7 7 7 7 7 8 9 9 10 10 11 11 12 11 11 11 11 11 10 10
33 32 32 32 33 31 30 29 26 23 21 18 16 15 15 13 13 12 11 10 10 9 9 9 9 8 8 7 8 8 8 9 10 11 11 12 12 12 12 13 13 12 12 11
34 33 32 33 33 32 31 30 29 26 25 23 19 18 17 15 14 14 12 12 11 11 10 10 10 10 10 9 9 8 9 9 10 11 12 12 12 12 13 14 14 13 13 13
35 35 33 32 33 33 33 32 30 28 26 24 22 19 20 17 16 15 14 13 13 12 12 12 12 12 11 11 11 10 10 10 10 11 12 12 12 13 13 14 14 15 15 14
35 35 34 31 29 31 33 33 32 30 28 26 25 22 21 20 18 17 16 15 15 15 14 15 15 14 13 12 12 12 12 12 12 12 13 13 13 14 14 15 15 16 17 16
34 35 35 34 33 32 32 32 33 32 30 28 26 25 24 22 20 20 19 17 17 17 17 17 17 16 15 14 14 14 13 13 13 13 14 14 15 15 15 16 16 17 17 16
34 35 34 34 34 34 34 33 33 33 32 31 29 28 26 25 23 22 21 20 19 20 19 19 19 18 18 17 16 15 15 14 15 15 15 15 16 17 17 16 17 17 18 18
34 34 33 33 34 34 35 35 34 34 33 32 30 29 28 27 26 24 23 22 21 21 21 20 20 19 19 19 18 17 17 17 17 17 16 17 17 17 17 18 19 19 19 18
34 33 32 32 33 34 34 35 35 34 34 33 32 31 30 29 27 26 25 24 23 22 22 23 22 22 21 20 19 19 19 19 19 19 18 18 18 18 19 19 20 21 20 19
35 33 33 33 32 33 35 35 34 35 35 34 33 32 31 30 29 29 27 26 25 25 24 24 24 24 24 23 21 21 21 21 21 21 21 20 20 20 20 21 21 22 21 19
34 34 34 34 33 33 35 34 33 34 36 35 34 33 32 31 30 30 29 28 27 27 27 26 26 26 26 25 24 24 23 23 23 23 22 21 21 20 21 22 22 22 22 21
35 35 35 35 35 35 36 34 33 34 35 34 34 34 33 32 31 30 29 29 28 28 28 27 27 27 27 27 26 26 26 26 25 25 25 24 23 23 23 23 23 22 22 21
36 36 37 36 35 37 37 36 36 36 35 35 34 34 34 34 33 32 31 31 30 29 29 28 28 29 29 29 28 28 28 28 27 27 26 25 25 25 24 24 23 23 22 22
36 37 37 37 37 36 35 35 35 35 35 35 35 35 35 35 35 34 33 33 32 31 31 30 30 31 30 30 30 30 30 30 29 29 28 27 27 26 26 26 26 24 24 24
36 36 36 36 36 36 35 35 35 34 35 35 35 35 35 35 35 36 35 35 34 33 33 32 32 32 31 30 31 31 32 32 31 30 29 29 30 29 28 27 27 26 26 25
35 36 36 35 35 35 35 35 35 35 35 36 36 36 36 35 35 35 35 35 34 34 34 34 34 34 33 33 33 33 34 33 33 32 32 31 31 30 29 29 30 29 27 25
34 35 35 35 34 35 34 34 35 35 34 35 36 36 35 35 35 35 34 35 35 35 34 34 34 34 34 34 34 34 34 34 34 34 33 32 32 31 31 31 30 29 28 27

GEFSCGP_500_meanwind_222.txt.gz
Wind_Speed
11 10 9 8 8 7 6 5 5 6 7 3 3 5 8 9 11 11 12 13 14 13 12 13 14 14 14 14 14 13 12 11 9 8 7 7 6 6 6 5 4 3 3 3
14 12 11 11 11 10 8 6 5 7 7 4 4 5 7 9 10 10 11 11 12 13 12 12 13 13 14 14 14 13 13 12 11 9 8 8 7 7 7 6 6 5 4 4
16 13 14 14 13 12 10 10 9 8 7 5 5 6 7 9 10 9 9 10 11 12 12 12 12 12 13 14 13 13 13 13 12 11 10 9 9 8 7 7 7 6 5 5
17 16 17 17 16 13 11 11 11 9 9 7 7 8 8 10 9 9 9 10 11 11 11 11 11 11 12 12 13 13 14 14 13 11 10 10 9 9 8 8 8 7 7 6
20 19 20 18 17 15 13 12 11 10 10 9 9 9 8 9 8 7 8 9 10 10 9 10 10 11 11 11 12 13 13 13 13 12 12 11 10 9 9 9 8 8 8 8
23 21 21 19 18 17 15 13 12 12 12 13 11 9 10 10 9 8 7 7 8 9 9 9 10 10 10 10 11 12 13 14 13 13 13 12 11 10 9 9 9 8 8 8
24 23 23 21 19 19 17 15 12 12 13 12 10 10 13 12 11 10 8 7 8 8 9 9 9 9 10 10 11 12 13 14 13 13 13 13 12 11 10 10 10 10 9 9
24 24 24 22 21 20 19 17 15 14 13 12 10 12 11 13 13 10 10 8 8 8 8 9 8 9 9 10 11 12 12 13 13 13 13 13 12 12 11 11 11 11 11 11
23 24 23 24 23 22 20 20 18 17 15 15 13 14 14 13 12 11 10 10 10 9 8 8 9 9 9 10 11 11 12 13 14 14 13 13 12 12 12 13 13 13 13 13
25 23 23 24 23 24 23 21 20 20 19 18 17 16 14 13 12 13 13 13 12 11 10 10 10 10 10 10 11 11 12 13 14 14 14 14 13 13 13 13 13 14 14 15
27 26 24 23 24 24 24 23 23 21 20 18 18 17 14 15 14 14 14 14 13 12 12 11 10 11 11 11 11 12 13 13 13 14 14 14 14 14 14 14 15 15 15 16
31 29 27 26 25 24 25 24 23 24 24 21 20 19 16 16 16 15 15 16 15 13 13 13 12 12 12 12 13 13 13 14 14 14 15 15 14 14 14 14 15 16 16 17
32 33 30 27 26 25 27 26 26 24 23 23 22 21 19 18 18 19 18 17 17 16 15 14 13 14 14 14 14 13 14 15 15 15 15 15 15 15 15 15 16 17 17 18
34 35 33 28 25 24 25 26 27 26 26 25 25 23 21 20 19 20 20 18 18 17 16 15 16 16 17 16 16 15 15 16 16 16 16 16 16 17 17 17 18 18 19 19
35 35 35 32 27 23 24 24 26 27 28 27 24 23 22 23 23 22 22 20 19 19 18 18 18 17 18 19 18 17 17 17 17 17 17 17 18 18 18 19 19 20 20 20
36 36 35 35 31 26 25 25 24 26 28 28 27 25 24 24 25 26 25 22 21 21 21 20 20 19 20 20 20 20 20 20 20 19 18 18 19 19 20 20 21 21 21 21
35 36 36 35 32 29 30 27 26 27 28 28 28 28 29 29 28 28 28 27 25 23 23 23 22 22 22 22 21 21 21 21 20 19 19 20 20 20 21 21 22 22 23 22
35 36 35 34 32 34 31 28 28 29 28 29 30 31 32 32 32 31 29 28 26 26 26 25 24 24 23 23 23 22 22 22 21 21 21 21 21 21 23 23 23 23 23 23
35 35 35 33 32 32 32 31 30 31 32 32 32 33 32 32 32 33 32 29 29 29 29 27 26 26 26 25 24 24 23 23 23 23 23 23 23 23 24 24 24 24 23 24
35 35 35 35 33 31 32 31 32 32 35 35 35 35 34 34 34 36 36 33 32 31 30 28 28 28 28 27 26 26 25 24 24 24 24 24 24 25 25 25 25 25 25 25
35 35 35 34 33 33 32 31 31 32 35 34 34 35 36 36 36 36 36 36 34 32 31 30 29 30 29 29 29 28 28 27 27 27 26 26 26 26 26 27 26 26 27 27
32 33 34 35 34 33 33 33 35 35 34 34 35 35 35 36 36 37 37 36 34 33 32 32 31 31 31 30 30 30 31 30 30 30 29 28 28 28 28 28 28 28 28 29
34 34 35 35 36 36 36 37 37 37 36 35 35 35 35 36 36 37 37 36 35 35 33 33 32 32 32 32 32 32 32 32 32 32 31 31 31 30 30 30 30 29 29 29
36 37 38 38 38 37 36 37 36 37 37 37 36 36 36 36 36 36 36 36 35 35 35 34 35 35 35 34 34 32 32 33 33 33 33 33 32 32 32 32 32 31 31 31
36 37 38 39 38 37 36 37 37 37 38 37 36 37 37 37 37 37 37 37 36 36 36 37 37 36 35 35 35 33 33 33 34 34 34 33 33 33 33 33 33 32 31 31
35 36 37 40 40 39 39 39 37 38 37 37 36 36 35 36 37 36 37 37 37 37 37 37 37 36 36 35 35 35 35 35 35 34 34 34 34 35 34 34 33 32 32 32

GEFSCGP_500_meanwind_228.txt.gz
Wind_Speed
17 15 13 10 8 7 4 2 1 3 5 7 7 8 9 10 11 12 13 14 14 15 15 15 15 15 15 15 15 15 14 14 12 11 10 9 8 7 7 6 5 4 4 3
19 15 13 11 10 9 7 4 4 4 5 6 8 8 6 7 8 10 11 12 13 13 14 14 14 14 14 15 14 14 14 14 13 12 11 10 9 8 7 6 6 5 5 4
19 16 16 15 13 11 9 8 7 7 7 8 9 8 7 6 6 7 9 10 11 12 12 12 12 13 13 14 14 14 14 14 14 13 12 11 9 8 8 7 7 6 5 5
21 20 19 17 15 12 12 11 11 10 10 9 10 9 8 6 5 5 6 7 8 10 11 11 11 12 12 12 13 13 14 13 13 13 12 11 10 9 8 8 7 7 7 6
23 22 21 18 15 14 14 13 14 13 12 11 11 10 9 7 6 4 4 5 6 7 8 9 10 10 10 11 12 13 13 14 14 13 12 11 10 10 9 8 8 7 7 7
25 25 23 19 16 17 17 17 16 15 13 13 12 11 10 9 7 6 4 4 4 4 5 6 8 8 9 10 11 12 12 13 14 13 13 12 11 10 10 9 9 8 8 8
26 26 25 22 20 19 19 19 18 17 15 13 12 12 10 9 9 8 5 4 4 4 4 5 6 7 7 8 9 10 11 12 13 13 13 12 11 10 10 10 10 9 9 9
26 27 25 23 22 21 21 21 21 19 17 15 15 15 11 10 10 9 7 6 5 3 2 3 4 5 6 7 8 9 10 11 12 12 12 12 11 10 10 10 10 10 10 10
27 26 24 23 22 22 23 22 20 19 18 18 18 15 12 11 11 9 8 7 4 3 2 2 3 4 4 6 6 7 9 10 11 12 12 12 11 10 10 10 11 11 11 11
27 27 27 25 24 24 23 21 22 22 21 21 20 17 13 11 11 10 8 8 6 5 4 3 3 4 5 6 5 7 8 9 10 11 12 12 12 12 11 11 11 12 13 13
28 28 27 27 27 25 25 25 24 23 22 21 21 19 15 14 11 11 10 9 10 8 7 5 5 5 5 6 5 6 7 8 9 10 10 11 12 12 12 12 12 13 13 13
29 29 29 29 28 28 26 26 26 26 25 23 22 21 17 15 13 12 12 11 11 11 10 8 6 7 7 6 6 6 7 8 9 10 10 10 11 12 12 13 13 13 13 13
31 31 30 30 30 29 29 28 28 27 27 26 26 24 20 18 16 16 15 14 14 13 12 11 9 9 8 9 9 9 9 9 10 10 11 11 11 12 13 13 13 14 14 14
33 33 33 32 30 30 30 30 30 29 29 29 28 25 22 21 20 19 18 16 16 15 13 13 12 11 10 11 11 11 11 11 11 11 12 12 12 13 13 14 14 14 15 15
34 35 35 34 32 31 32 32 32 31 30 30 28 26 23 21 21 20 19 17 17 17 17 15 15 14 13 13 13 13 13 13 13 13 14 14 14 14 14 15 15 16 16 16
35 36 35 35 34 34 33 32 33 33 32 31 29 28 25 23 22 22 22 20 20 20 18 17 17 16 14 14 14 15 15 15 15 15 15 15 15 16 16 17 17 17 17 18
35 36 37 36 35 34 35 33 33 34 34 33 32 30 27 26 25 23 23 21 21 20 20 19 18 18 17 17 17 17 18 18 18 17 17 17 17 18 18 19 18 18 18 19
36 35 36 37 37 38 35 34 34 34 34 34 32 32 30 28 27 26 25 24 23 22 22 21 21 22 21 20 20 20 21 21 20 20 20 20 20 20 20 20 20 20 20 20
37 35 35 36 38 38 36 35 35 36 35 34 34 33 32 31 29 28 27 26 25 25 24 24 23 23 23 23 23 23 23 23 23 23 23 23 23 22 22 22 22 21 21 22
38 37 36 36 37 39 36 35 35 36 37 36 36 35 34 33 31 30 29 29 28 27 27 27 26 26 27 27 26 26 26 27 26 26 26 26 25 25 24 23 24 24 24 24
40 39 38 37 38 39 37 36 36 38 38 36 36 36 35 35 34 33 33 32 30 30 30 30 30 30 30 30 30 30 30 29 29 29 28 28 28 27 27 26 25 26 26 25
39 40 39 38 39 39 37 37 39 39 38 37 37 36 36 36 35 36 36 35 33 33 33 33 34 33 32 32 33 32 32 31 31 31 30 29 29 29 28 28 28 28 28 28
39 39 39 39 38 37 37 38 39 39 38 37 38 38 39 39 38 37 36 36 35 34 34 35 35 35 34 34 34 33 33 33 32 32 31 31 30 30 30 30 30 29 29 29
39 38 38 38 38 37 36 36 37 37 38 38 38 38 39 39 38 38 36 35 35 35 36 35 35 35 35 35 34 34 34 33 33 32 32 32 32 32 31 30 30 30 30 30
38 38 38 37 37 36 35 35 35 36 36 36 36 37 37 38 39 39 40 38 36 36 36 36 36 37 36 35 35 34 34 34 34 33 33 33 33 31 31 31 32 32 32 31
37 36 37 37 36 36 35 35 35 35 35 36 36 36 37 37 37 37 38 39 39 38 37 37 37 36 37 36 35 34 35 34 34 33 33 32 32 32 32 32 32 32 33 33

GEFSCGP_500_meanwind_234.txt.gz
Wind_Speed
19 17 15 12 10 8 6 4 3 2 3 4 6 7 7 8 9 10 11 11 11 12 12 12 13 13 13 13 13 14 13 13 12 11 10 9 9 8 7 7 7 6 5 4
20 18 16 16 14 11 9 7 5 2 1 2 3 5 5 6 7 7 8 9 10 10 11 11 11 12 12 12 13 14 13 12 12 11 10 10 9 8 8 7 7 6 6 5
22 19 20 19 17 14 12 9 8 6 5 4 3 2 3 4 5 5 6 7 7 8 9 9 10 11 11 11 12 12 13 12 12 12 11 10 10 9 8 8 7 7 6 6
25 24 23 21 19 16 13 12 10 9 8 7 5 3 2 2 3 4 6 6 5 5 6 7 8 9 9 10 11 11 11 11 11 11 11 10 10 9 8 8 7 7 6 6
27 27 25 23 20 18 16 14 13 13 11 10 8 7 4 3 2 3 5 6 5 4 3 4 5 7 7 8 9 9 10 10 10 10 10 10 9 9 8 8 8 7 7 7
29 29 28 26 24 21 19 17 16 15 14 12 10 9 6 5 3 3 4 5 5 4 2 2 3 5 5 6 7 7 8 8 9 9 9 9 9 8 8 8 8 7 7 8
29 29 29 27 26 24 22 20 19 18 17 15 13 12 8 6 6 5 5 5 5 5 3 2 2 2 3 4 5 6 7 7 7 8 9 8 8 8 8 8 8 8 8 8
30 29 29 28 27 26 24 23 21 20 18 17 16 15 11 9 8 8 7 7 6 6 5 3 2 1 2 2 3 4 5 5 6 7 8 8 7 7 7 8 9 9 9 9
31 30 29 29 29 28 27 24 22 21 21 20 20 18 15 12 10 9 8 8 7 6 6 6 5 4 3 3 3 3 3 4 5 6 7 8 8 7 8 8 10 10 11 11
32 31 31 31 31 30 29 26 24 23 23 23 22 20 17 15 12 11 10 9 8 7 8 8 7 6 5 4 5 4 4 5 5 6 7 8 8 9 9 9 10 11 11 12
32 32 32 33 33 32 30 29 28 27 26 25 24 21 18 16 15 13 12 11 10 10 10 9 9 8 7 6 6 6 7 7 7 7 7 8 9 9 10 11 11 12 12 13
32 32 33 33 33 33 33 32 30 29 28 26 25 23 20 18 16 15 13 13 12 11 10 10 11 10 10 10 8 8 9 10 10 9 9 9 10 11 11 12 13 13 14 14
33 34 34 34 34 34 34 33 32 31 30 29 27 25 21 20 19 17 15 14 13 12 12 11 11 12 12 12 12 11 11 11 11 12 12 12 12 13 13 13 13 14 14 15
34 35 35 34 32 33 33 32 33 32 32 31 29 26 23 22 21 19 18 16 15 15 15 14 13 13 14 14 13 13 13 13 14 14 15 14 14 15 15 15 14 15 15 16
35 35 35 33 32 32 32 31 32 33 33 32 30 28 26 24 23 22 21 20 18 17 17 16 16 15 15 15 15 15 15 15 15 15 16 16 17 17 17 16 16 17 17 17
37 37 36 35 34 33 34 32 31 33 34 33 31 30 28 26 25 24 22 20 20 18 18 18 18 18 18 17 16 17 17 16 16 17 18 19 18 18 18 18 18 18 19 19
38 39 38 37 36 35 37 34 33 34 34 34 33 31 29 28 27 25 23 22 20 19 18 19 20 21 21 20 19 18 19 19 19 19 20 21 21 21 21 21 21 20 20 20
40 40 39 38 37 37 35 35 34 34 34 33 32 31 31 29 27 27 26 25 22 22 22 22 21 22 22 21 21 21 22 22 22 22 23 23 23 23 23 23 23 23 23 22
40 41 40 40 39 38 37 35 34 34 34 32 32 31 30 30 29 28 27 27 26 25 25 25 24 23 23 23 23 23 24 24 25 25 24 25 25 26 25 25 26 26 25 24
40 41 41 41 40 40 37 36 36 36 36 34 33 32 31 30 30 28 28 29 28 28 28 27 27 26 26 26 27 27 28 28 27 27 27 27 28 28 27 28 28 27 26 26
40 40 41 41 41 39 37 37 37 37 35 33 33 32 32 31 30 29 30 30 30 30 30 30 30 30 29 28 29 29 30 30 30 29 29 29 29 29 29 30 29 28 28 28
38 39 39 39 40 39 37 37 37 36 34 33 32 32 33 32 31 30 30 31 31 31 31 31 31 31 31 31 31 31 32 31 31 30 30 31 31 31 31 32 31 30 29 29
38 38 38 39 39 38 37 37 36 35 35 34 33 33 33 33 32 31 31 31 32 32 32 33 34 33 33 33 33 33 33 32 32 31 32 32 33 33 33 33 32 32 32 32
38 38 37 38 38 37 36 36 36 36 36 35 34 33 33 33 33 33 33 33 33 33 34 34 35 36 35 35 35 34 34 34 33 33 34 34 34 35 34 33 32 32 32 33
36 36 36 37 37 37 36 35 35 35 35 36 36 35 34 34 34 35 35 35 35 35 36 36 36 37 36 36 36 35 35 35 35 35 36 36 36 36 35 34 34 34 33 33
35 36 35 35 35 35 35 35 35 35 35 35 35 36 36 36 37 37 38 38 38 37 37 37 38 39 39 38 37 36 37 37 36 36 36 36 36 35 34 34 33 34 33 33

GEFSCGP_500_meanwind_240.txt.gz
Wind_Speed
15 14 12 10 9 9 7 5 3 2 2 3 5 6 6 7 9 9 10 10 10 10 10 10 10 11 10 10 9 9 9 9 9 8 8 8 8 8 7 6 6 4 3 3
18 17 15 14 12 11 9 6 4 3 2 1 2 3 4 4 6 7 8 8 8 8 8 9 9 9 9 9 9 9 9 8 8 8 7 7 7 7 7 6 5 4 3 3
19 18 18 16 14 13 11 9 7 5 3 2 1 2 2 2 3 5 5 6 6 7 6 6 7 8 8 8 8 8 8 8 8 7 7 7 6 6 6 5 5 5 3 3
23 22 21 19 17 15 13 12 11 8 5 5 3 3 4 3 2 3 3 4 4 5 4 4 4 5 6 6 6 7 7 7 7 7 7 7 7 7 6 6 6 5 5 4
25 24 23 21 19 18 16 15 13 11 9 7 7 4 5 5 3 3 2 3 3 3 3 3 3 3 4 4 5 5 6 6 7 7 7 6 7 6 6 7 6 6 6 5
27 26 25 23 22 20 18 17 15 12 10 10 9 7 7 7 5 4 3 3 3 3 3 3 3 2 2 3 3 4 5 5 6 7 7 6 6 6 6 7 7 7 7 6
28 27 27 26 24 23 21 18 15 13 13 13 12 10 9 8 7 6 5 5 5 4 3 3 3 3 2 2 2 3 4 5 5 6 6 7 6 6 6 7 7 7 7 7
28 28 28 28 27 25 23 21 19 16 14 14 15 13 10 9 8 7 7 7 6 5 4 4 3 3 3 3 3 3 3 4 5 5 6 7 7 7 7 7 7 7 8 8
28 28 28 29 28 27 26 25 21 18 17 15 16 15 12 10 9 9 9 8 8 7 6 6 5 4 4 4 4 5 5 5 5 6 6 7 8 8 8 8 8 8 8 8
29 28 29 29 29 29 28 25 24 21 19 18 17 16 13 12 11 11 11 10 9 9 8 7 7 6 6 6 6 7 7 7 6 6 7 8 8 9 9 8 8 9 9 10
30 29 29 30 31 30 29 28 26 24 22 20 18 17 16 14 12 11 11 11 11 10 9 9 8 8 8 8 8 8 8 8 7 7 8 8 9 10 10 11 10 10 11 11
31 31 30 30 31 31 30 29 28 26 25 23 20 19 19 16 14 13 12 12 12 11 11 10 10 10 10 10 10 10 10 10 9 9 10 10 11 12 12 12 12 12 12 13
33 33 32 31 32 32 32 31 30 27 25 24 22 20 20 19 17 16 15 15 15 14 13 12 12 12 12 12 12 12 12 12 12 11 11 12 13 13 13 14 14 14 14 14
35 34 33 32 30 31 32 32 31 29 28 26 25 22 22 21 19 19 18 18 18 17 15 14 15 15 15 15 14 14 14 14 14 14 14 14 15 16 16 16 16 15 16 16
36 35 34 33 32 32 33 32 32 32 30 28 26 24 23 21 21 21 21 20 20 18 17 17 17 17 18 17 16 16 16 16 17 16 16 16 17 18 18 18 18 17 17 17
36 36 35 34 33 33 33 33 33 33 32 31 29 27 25 23 22 22 22 22 21 21 20 19 19 20 20 19 19 19 19 19 19 19 19 19 19 20 20 20 20 19 19 19
36 35 35 34 34 34 35 34 33 33 32 31 30 28 26 25 25 24 24 23 23 23 22 22 21 21 21 22 22 21 21 21 21 22 22 22 22 22 22 21 22 21 21 21
38 37 36 35 36 36 35 34 33 33 33 32 31 29 29 28 27 26 25 25 24 23 23 23 22 23 23 23 24 23 24 24 24 25 25 25 25 24 24 24 24 24 23 22
40 39 38 37 37 37 38 35 34 34 34 33 32 31 30 30 29 28 27 27 25 25 25 25 25 25 25 25 26 27 27 27 27 27 28 27 28 28 27 27 27 26 25 24
40 40 40 40 38 37 37 37 35 35 36 34 33 32 32 31 31 29 28 28 27 27 27 27 27 27 27 27 28 29 29 29 30 30 30 30 30 30 30 30 29 28 28 27
40 40 40 40 40 39 39 36 35 36 36 34 33 32 32 31 31 29 29 29 29 30 29 28 29 29 28 28 29 30 31 31 31 31 31 31 31 31 31 30 30 30 30 29
39 39 40 40 40 40 39 37 37 36 35 33 33 33 33 33 32 31 30 31 30 31 31 31 31 31 31 31 32 32 33 32 32 32 33 33 33 33 32 32 31 31 31 31
39 39 39 40 39 39 38 37 37 36 36 35 34 33 34 33 33 32 32 32 32 32 32 33 32 33 33 33 33 33 33 34 34 33 33 34 34 34 33 33 33 34 34 33
39 38 39 39 38 38 37 36 36 35 34 34 34 33 33 32 32 33 34 34 34 34 34 35 34 34 34 35 34 34 34 35 34 34 34 34 35 35 35 36 37 36 34 33
39 38 38 38 38 37 37 35 34 34 34 33 33 33 33 33 33 34 34 35 36 36 36 36 36 36 36 35 35 36 37 36 34 34 35 36 36 37 37 36 36 35 35 35
38 38 38 37 36 36 36 35 34 33 33 33 33 33 33 33 34 35 35 35 36 36 37 37 37 36 36 37 36 36 36 36 35 36 37 37 37 38 37 36 36 36 35 35

GEFSCGP_500_meanwind_246.txt.gz
Wind_Speed
12 11 10 8 7 5 3 2 4 3 3 4 5 6 8 10 10 10 10 10 10 11 11 11 11 11 11 11 10 10 10 10 10 10 10 9 8 8 7 6 6 5 5 5
14 13 11 9 9 8 7 6 7 5 4 4 5 4 5 7 9 9 9 10 10 10 10 10 9 10 10 11 11 11 10 10 10 10 10 9 9 8 7 7 5 5 5 4
16 13 12 13 12 11 9 9 9 7 7 5 6 7 5 6 7 8 9 8 8 8 8 8 8 8 8 9 9 10 9 10 10 9 9 9 10 8 7 6 5 5 5 5
18 16 15 15 15 13 12 12 12 10 9 7 6 10 8 7 7 7 8 7 7 7 7 7 7 7 7 7 7 8 8 8 9 9 9 9 9 9 8 7 7 6 5 5
19 19 18 17 17 16 15 14 13 11 10 9 9 12 10 9 7 6 6 7 7 6 5 5 5 5 5 5 6 6 7 7 7 8 8 9 9 9 8 8 7 7 6 6
21 20 20 19 17 18 16 15 14 11 11 13 13 14 13 10 8 9 8 7 6 5 5 5 4 4 4 4 4 5 5 6 6 7 8 8 9 9 9 8 8 8 7 7
23 22 21 20 20 19 17 15 14 13 14 16 13 12 13 9 9 10 10 9 7 5 5 5 5 5 5 4 4 4 5 5 6 7 8 9 9 9 9 9 9 8 8 8
22 23 22 23 23 21 19 19 18 16 14 14 10 11 11 10 10 11 11 10 9 7 7 6 6 5 5 5 4 4 4 5 5 7 8 8 9 9 10 10 9 9 9 9
20 21 22 23 23 22 21 21 19 17 16 16 13 11 12 14 13 13 12 11 9 9 9 8 8 7 6 6 5 5 4 5 6 7 8 8 9 9 10 10 10 10 10 10
23 22 22 23 24 24 23 20 19 19 19 18 16 14 15 14 14 14 14 13 11 11 11 10 9 9 8 8 7 6 6 7 7 8 8 9 9 9 10 11 11 11 12 12
25 24 23 24 25 24 24 23 22 21 20 20 19 17 16 16 16 17 15 13 13 13 12 12 12 11 10 9 9 8 9 9 9 9 9 10 10 10 11 12 13 14 14 14
28 26 25 25 25 24 25 25 24 24 23 22 21 20 17 15 14 16 15 15 15 14 14 15 13 13 11 10 10 10 10 10 11 11 11 12 12 12 13 14 15 15 16 16
31 31 28 25 24 25 26 26 25 25 24 24 22 21 21 19 17 16 16 17 16 15 14 15 16 14 13 13 12 13 12 12 12 13 14 14 14 15 15 16 16 17 17 17
35 35 33 28 24 24 26 26 26 26 27 26 24 23 24 21 19 19 18 17 17 16 16 17 17 17 15 14 14 14 14 15 15 15 16 16 17 18 18 18 18 19 19 19
36 37 36 34 29 27 25 25 26 27 27 28 25 24 25 25 23 22 20 18 18 18 19 19 19 18 17 16 16 16 16 17 18 18 18 18 19 20 21 21 22 22 22 21
37 37 37 37 32 30 28 27 26 26 26 27 27 26 26 27 27 26 22 21 21 21 22 21 20 20 19 19 19 19 19 20 20 20 21 21 21 22 23 24 25 24 24 23
37 38 38 37 33 32 33 29 28 28 28 28 29 29 30 31 31 29 25 23 24 24 24 24 22 22 23 22 22 21 21 22 22 23 23 24 24 24 25 26 26 26 26 25
37 38 38 36 35 37 36 31 30 29 29 30 32 32 33 35 33 30 26 26 26 25 25 25 24 24 24 24 24 24 24 25 25 25 25 25 27 27 27 28 28 28 28 28
38 38 38 37 37 36 35 34 33 32 33 34 34 34 34 33 34 33 30 28 29 28 27 27 27 27 27 26 27 27 27 27 27 27 27 28 28 28 28 28 28 29 28 28
38 39 39 38 36 36 34 32 32 33 36 37 37 36 35 34 35 34 32 31 31 29 30 30 29 29 30 29 29 29 29 29 28 28 29 29 29 30 29 29 30 30 30 30
37 37 37 38 38 36 34 34 33 35 37 37 36 36 35 35 36 36 33 33 33 31 31 32 31 32 32 31 30 30 31 31 31 30 30 30 31 32 32 32 32 32 32 33
36 37 38 37 37 37 37 37 37 37 37 37 37 36 35 35 35 35 34 33 33 33 33 33 33 33 33 32 31 31 33 33 33 33 33 33 34 34 35 35 35 35 35 35
35 36 37 40 39 38 38 39 39 39 39 39 38 37 37 37 36 36 35 36 36 35 35 34 34 34 35 34 34 34 34 35 35 35 35 36 35 36 36 37 37 36 36 36
37 37 38 39 40 40 39 40 41 40 40 41 40 39 39 37 36 36 36 37 37 36 35 35 35 36 36 36 36 37 37 37 37 37 37 38 38 38 38 38 38 38 37 37
36 38 39 42 42 41 42 42 42 42 41 41 40 38 37 37 36 36 38 38 38 37 37 37 37 37 37 38 38 38 38 39 39 39 38 38 39 39 39 39 39 37 37 36
38 38 40 41 42 41 41 43 42 42 42 42 41 39 37 37 37 38 39 39 39 38 38 38 37 38 38 38 38 38 39 39 38 38 39 39 40 39 39 38 38 38 38 37

GEFSCGP_500_meanwind_252.txt.gz
Wind_Speed
15 13 10 8 6 5 3 3 1 2 3 5 7 8 8 8 9 9 10 11 11 11 11 10 11 11 11 11 11 11 12 11 11 11 10 10 9 9 8 7 7 6 5 5
17 13 11 11 10 8 5 4 3 1 1 3 4 5 6 6 7 7 8 9 10 10 10 9 10 10 10 10 11 11 11 10 11 11 10 10 10 10 9 8 7 6 6 5
16 12 13 13 12 11 8 5 4 4 4 5 5 5 4 4 5 5 6 7 8 8 8 8 8 8 9 9 10 10 10 9 10 10 10 10 10 9 9 8 7 5 5 4
18 16 16 15 13 13 11 7 7 8 9 9 8 7 6 6 4 3 4 5 6 6 6 6 6 7 8 8 8 8 8 8 9 9 9 9 9 8 8 7 6 5 4 4
20 18 18 18 16 15 12 10 11 11 12 12 11 11 8 8 4 3 3 3 3 4 4 5 5 5 6 6 6 6 7 7 7 8 8 7 7 7 7 7 6 6 5 4
22 21 21 19 19 17 14 14 15 15 15 14 12 13 10 7 5 3 3 2 2 3 3 3 3 3 4 4 5 5 5 6 6 6 6 6 7 7 6 6 6 6 6 5
24 23 22 21 20 19 17 17 17 17 17 16 13 14 10 8 8 6 4 3 3 2 3 2 1 2 2 3 3 4 4 4 5 5 4 4 5 5 5 5 5 6 6 6
25 24 22 22 21 20 18 18 20 18 17 15 14 14 11 10 11 8 6 4 4 4 3 3 2 1 1 1 2 2 3 4 4 5 4 4 4 4 5 6 7 7 7 7
26 23 22 22 21 20 20 19 19 19 18 16 15 14 13 12 11 9 8 6 6 5 5 5 4 4 3 2 1 1 2 2 3 4 4 4 4 5 5 7 7 8 8 8
26 25 25 24 24 23 22 20 21 22 20 18 16 15 15 13 12 10 9 8 7 7 7 8 7 7 6 4 3 2 2 2 3 4 4 5 5 6 6 7 8 8 9 9
28 28 26 26 27 25 23 22 23 23 22 22 20 18 16 14 12 11 11 10 9 9 9 10 10 9 9 8 6 4 4 4 4 4 5 6 6 7 7 8 8 9 9 10
30 30 29 27 26 25 23 23 23 24 22 22 22 21 18 16 14 14 13 12 11 11 11 11 11 10 10 9 9 8 7 5 5 6 6 7 8 8 9 9 9 10 10 11
32 32 31 30 28 28 27 26 25 25 24 24 24 23 20 19 16 15 15 15 14 13 13 13 12 11 10 10 9 9 9 8 8 8 9 9 9 10 10 11 11 12 12 13
35 35 34 34 31 30 30 28 27 27 28 27 26 24 23 22 20 18 18 17 17 17 16 15 14 13 12 12 11 11 11 11 11 11 11 11 11 12 13 13 13 14 15 16
36 37 36 35 33 32 31 31 30 29 29 29 27 26 25 23 22 21 20 19 20 19 19 17 17 16 15 14 13 14 13 13 13 13 13 13 13 14 15 15 15 16 17 18
37 38 38 37 37 35 34 33 32 31 31 31 29 28 26 25 23 23 22 22 21 21 20 19 19 19 18 17 15 14 15 15 15 14 15 16 16 16 16 16 17 18 19 19
38 39 39 39 38 37 37 35 34 34 33 33 31 30 28 27 25 24 23 22 21 21 21 21 20 20 19 18 16 17 16 17 17 17 17 18 18 19 19 19 20 20 21 21
39 39 39 39 39 40 37 36 35 35 35 35 35 33 31 30 28 26 26 26 24 24 23 22 23 22 21 21 20 19 19 18 19 20 20 20 20 21 22 22 22 22 23 24
40 40 40 40 41 40 38 37 36 36 36 35 36 36 33 32 30 29 28 27 28 28 27 26 24 25 25 24 23 22 22 22 22 22 21 21 22 22 23 23 24 25 25 27
38 40 41 42 42 42 40 38 38 38 38 36 36 36 35 34 33 31 30 30 29 29 28 27 27 27 28 27 27 26 26 26 25 24 24 25 26 26 26 25 26 27 28 28
39 39 40 41 42 43 41 40 40 41 41 39 38 37 37 36 35 33 33 32 31 31 30 30 30 30 30 30 31 30 29 28 28 27 27 28 29 29 29 29 29 30 31 31
38 39 40 41 42 42 41 41 41 42 42 41 40 39 38 37 36 36 36 35 34 33 32 33 34 34 34 34 34 33 33 32 31 31 31 32 32 32 32 32 32 32 32 33
38 39 40 41 40 40 40 40 40 41 41 41 41 40 39 38 38 38 38 38 37 35 35 35 36 36 36 36 36 36 35 34 33 33 33 33 34 34 33 33 34 34 33 33
38 40 41 41 40 40 40 39 39 39 40 39 39 39 39 39 39 39 38 38 38 37 38 37 37 37 37 38 38 37 35 35 34 34 34 35 35 34 35 35 35 35 34 34
38 39 40 41 41 41 40 39 39 39 39 39 39 38 39 40 40 40 39 38 38 38 37 38 38 38 38 39 38 38 37 36 35 36 36 35 35 36 36 36 36 35 35 34
35 37 38 38 38 38 38 39 39 39 40 40 39 38 39 40 41 40 40 39 39 39 38 38 39 39 39 39 39 39 39 38 37 37 37 36 37 37 36 36 36 35 35 35